KPEZ

Details ICAO KPEZ
Name PLEASANTON MUNI
Region United States
Timezone America/Chicago (UTC-5.0)
Plans Departing 1
Arriving 2
Stats Elevation 430 ft / 131 m (AMSL)
Location 28.954190° -98.519985°
Runways 1
Magnetic Variation 4.224° E
Sunrise 2018-05-23 11:40:04 UTC / 2018-05-23 06:40:04 Local
Sunset 2018-05-24 01:24:30 UTC / 2018-05-23 20:24:30 Local
Advertisement - Login to hide

Runways

ID Width Length Bearing (true) Bearing (mag) Surface Threshold Offset Overrun Length
16 75 ft / 23 m 4,012 ft / 1,223 m 163.18° 158.96° Asphalt 403 ft / 123 m 0 ft / 0 m
34 75 ft / 23 m 4,012 ft / 1,223 m 343.18° 338.96° Asphalt 0 ft / 0 m 0 ft / 0 m

Map

Weather


0- 5 10 15 20 25 30 35+ Temperature / ° C

Clouds and Precipitation
Forecast for 2018-05-23 12:00 UTC. Updated 42 minutes ago

Ground ~20,000 ft ~40,000 ft Winds

METAR

KPEZ 230955Z AUTO 00000KT 10SM OVC005 23/23 A2997 RMK AO2 T02260226

TAF

Not found

Frequencies

Unicom 122.70 MHz CTAF/UNICOM
Approach 118.05 MHz SAN ANTONIO APP
Clearance 126.55 MHz CLNC DEL
Departure 125.70 MHz SAN ANTONIO DEP
Warning: Do not use this data for real-world aviation or navigation. No guarantee of current accuracy is given.